Location: Newark
(43.6583°N, 1.6617°E)
Time: 17:21:29
(UTC+00:00)

Transit 4A - Pass Details

Date: 02 September 2019
Orbit: 866 x 978 km, 66.8° (Epoch: 15 October)

Event Time Altitude Azimuth Distance (km) Brightness Sun altitude
Rises 00:52:38 0° 325° (NW) 3,618 11.4 -36.5°
Reaches altitude 10° 00:55:14 10° 323° (NW) 2,653 10.6 -36.4°
Enters shadow 00:57:22 22° 317° (NW) 1,899 9.7 -36.3°
